Stations météo

réclame
Mon MeteoGroup
Bordeaux/Merignac, France (7510): Température de l'air & dewpoint: 16.02.2018 04:00:00 - 22.02.2018 04:00:00 (CET)Bordeaux/Merignac, France (7510): Température de l'air 5cm: 16.02.2018 04:00:00 - 22.02.2018 04:00:00 (CET)Bordeaux/Merignac, France (7510): Température de l'air -20cm & Température de l'air -100cm: 16.02.2018 04:00:00 - 22.02.2018 04:00:00 (CET)Bordeaux/Merignac, France (7510): Vitesse du vent & gusts: 16.02.2018 04:00:00 - 22.02.2018 04:00:00 (CET)Bordeaux/Merignac, France (7510): Direction du vent: 16.02.2018 04:00:00 - 22.02.2018 04:00:00 (CET)Bordeaux/Merignac, France (7510): reduced air pressure: 16.02.2018 04:00:00 - 22.02.2018 04:00:00 (CET)Bordeaux/Merignac, France (7510): visibility: 16.02.2018 04:00:00 - 22.02.2018 04:00:00 (CET)Bordeaux/Merignac, France (7510): Ensoleillement: 16.02.2018 04:00:00 - 22.02.2018 04:00:00 (CET)Bordeaux/Merignac, France (7510): Quantités de précipitations: 16.02.2018 04:00:00 - 22.02.2018 04:00:00 (CET)
Date & Time tt [°C] td [°C] tt 5cm [°C] tt -20cm [°C] tt -100cm [°C] ff [km/h] ff [knt] fx [km/h] fx [knt] dd ppp [hPa] vv [km] sd [min] rr [mm]
22.02.2018 04:00:00 - - - - - - - - - - - - - -
22.02.2018 03:00:00 1,0 -1,1 0,2 7,9 9,9 12 6 22 12 N 1016,5 3,9 0 0,0
22.02.2018 02:00:00 1,7 -0,9 1,0 8,1 9,9 16 8 25 13 N 1016,8 4,5 0 0,0
22.02.2018 01:00:00 2,2 -0,7 1,6 8,4 9,9 16 9 29 16 N 1016,9 4,9 0 0,0
22.02.2018 00:00:00 2,7 -0,6 2,0 8,6 9,9 16 9 24 13 N 1017,2 5 0 0,0
21.02.2018 23:00:00 2,8 -0,7 2,1 8,8 9,9 15 8 25 14 N 1017,4 6 0 0,0
21.02.2018 22:00:00 3,6 -0,6 2,9 9,0 9,9 14 8 26 14 N 1017,5 7 0 0,0
21.02.2018 21:00:00 4,1 -0,5 3,4 9,3 9,9 17 9 30 16 N 1017,7 7 0 0,0
21.02.2018 20:00:00 4,7 -0,3 4,0 9,5 9,9 23 12 35 19 NNE 1017,5 8 0 0,0
21.02.2018 19:00:00 5,5 -0,6 4,9 9,7 9,9 24 13 32 18 NNE 1017,1 9 0 0,0
21.02.2018 18:00:00 6,6 -0,6 7,0 9,8 9,9 23 13 39 21 NNE 1016,7 10 0 0,0
21.02.2018 17:00:00 7,2 -0,5 8,1 9,8 9,9 27 15 42 23 NNE 1016,6 12 0 0,0
21.02.2018 16:00:00 7,7 -0,5 9,6 9,6 9,9 27 15 41 22 N 1016,7 10 0 0,0
21.02.2018 15:00:00 8,3 -1,3 11,6 9,3 9,9 29 15 44 24 N 1017,0 12 0 0,0
21.02.2018 14:00:00 8,1 -0,4 11,0 9,0 9,9 29 16 44 24 NNE 1017,6 11 0 0,0
21.02.2018 13:00:00 7,7 -1,3 9,5 8,8 9,9 28 15 41 22 NNE 1018,2 11 0 0,0
21.02.2018 12:00:00 6,6 -2,1 8,5 8,7 9,9 29 16 42 23 NNE 1018,9 10 0 0,0
21.02.2018 11:00:00 5,8 0,1 6,9 8,6 9,9 26 14 36 19 NNE 1019,3 9 0 0,0
21.02.2018 10:00:00 4,8 0,6 5,1 8,7 9,9 26 14 41 22 NNE 1019,4 8 0 0,0
21.02.2018 09:00:00 4,0 1,5 3,1 8,9 9,9 23 13 37 20 N 1018,9 8 0 0,0
21.02.2018 08:00:00 3,5 1,5 2,9 9,1 9,9 19 11 27 15 N 1018,3 10 0 0,0
21.02.2018 07:00:00 4,1 1,8 3,5 9,3 9,9 18 10 41 22 N 1018,0 15 0 0,0
21.02.2018 06:00:00 5,5 2,7 5,0 9,5 9,9 23 12 40 21 NNE 1017,3 51 0 0,0
21.02.2018 05:00:00 6,3 3,3 5,3 9,6 9,9 29 16 48 26 NNE 1016,7 60 0 0,0
21.02.2018 04:00:00 6,5 3,8 5,2 9,7 9,8 18 10 45 24 N 1016,6 43 0 0,0
21.02.2018 03:00:00 7,2 4,2 5,8 9,8 9,8 24 13 43 23 N 1017,1 42 0 0,0
21.02.2018 02:00:00 7,7 4,6 6,2 9,9 9,8 26 14 38 20 N 1017,3 39 0 0,0
21.02.2018 01:00:00 7,8 5,8 6,8 10,0 9,8 22 12 41 22 N 1017,5 22 0 0,8
21.02.2018 00:00:00 9,0 6,1 8,8 10,1 9,8 24 13 37 20 NNW 1017,5 50 0 0,0
20.02.2018 23:00:00 9,6 6,9 9,3 10,2 9,8 23 12 35 19 NNW 1017,8 54 0 0,0
20.02.2018 22:00:00 9,8 8,4 9,3 10,3 9,8 16 9 24 13 NW 1018,2 19 0 0,0
20.02.2018 21:00:00 10,2 8,3 9,9 10,4 9,8 16 9 30 16 NW 1018,4 20 0 0,0
20.02.2018 20:00:00 10,3 8,6 10,0 10,4 9,8 18 10 30 16 WNW 1018,5 19 0 0,0
20.02.2018 19:00:00 10,5 8,6 10,1 10,5 9,8 16 9 24 13 WNW 1018,2 19 0 0,0
20.02.2018 18:00:00 11,2 8,2 10,9 10,5 9,7 16 9 28 15 NW 1018,4 35 0 0,0
20.02.2018 17:00:00 11,3 8,7 10,8 10,5 9,8 17 9 35 19 NW 1018,3 19 0 0,0
20.02.2018 16:00:00 11,9 8,4 12,0 10,4 9,8 24 13 34 19 NNW 1018,3 47 0 0,0
20.02.2018 15:00:00 12,2 8,8 10,4 10,3 9,7 21 11 31 17 NNW 1018,1 44 0 0,0
20.02.2018 14:00:00 10,9 8,8 10,4 10,1 9,7 23 12 42 23 N 1018,9 9 0 0,0
20.02.2018 13:00:00 12,3 8,9 13,0 9,9 9,7 20 11 32 17 NW 1018,8 35 0 0,0
20.02.2018 12:00:00 11,2 9,1 10,3 9,7 9,7 18 10 27 15 NW 1018,8 20 0 0,0
20.02.2018 11:00:00 10,2 9,1 9,5 9,7 9,7 16 9 26 14 NW 1019,0 17 0 0,0
20.02.2018 10:00:00 9,7 8,8 9,1 9,7 9,7 19 10 34 18 NW 1019,0 11 0 0,0
20.02.2018 09:00:00 9,5 8,7 9,0 9,7 9,7 19 10 28 15 NW 1018,7 13 0 0,0
20.02.2018 08:00:00 9,5 8,9 9,0 9,7 9,7 16 9 27 15 NW 1018,1 13 0 0,0
20.02.2018 07:00:00 9,5 8,9 9,1 9,8 9,7 16 8 29 16 NW 1017,8 16 0 0,2
20.02.2018 06:00:00 9,7 8,9 9,2 9,8 9,7 21 11 37 20 NW 1018,0 11 0 0,0
20.02.2018 05:00:00 10,0 9,4 9,6 9,8 9,6 20 11 31 17 NW 1017,8 17 0 0,0
20.02.2018 04:00:00 10,3 9,8 9,9 9,8 9,6 13 7 18 10 NW 1017,9 10 0 0,0
20.02.2018 03:00:00 10,2 9,9 9,8 9,8 9,7 11 6 20 11 NW 1018,1 15 0 0,0
20.02.2018 02:00:00 10,1 9,8 9,9 9,8 9,6 11 6 22 12 NW 1018,2 17 0 0,0
20.02.2018 01:00:00 10,1 9,9 9,7 9,8 9,6 13 7 21 11 WNW 1018,4 2,5 0 0,0
20.02.2018 00:00:00 9,9 9,7 9,5 9,9 9,6 13 7 17 9 WNW 1018,6 12 0 0,0
19.02.2018 23:00:00 9,7 9,6 9,4 9,9 9,6 11 6 16 8 WNW 1018,6 11 0 0,0
19.02.2018 22:00:00 9,6 9,3 9,3 9,9 9,6 6 3 21 11 NW 1019,0 7 0 0,0
19.02.2018 21:00:00 9,5 9,2 9,2 10,0 9,6 7 4 18 10 NW 1019,2 6 0 0,0
19.02.2018 20:00:00 9,6 9,3 9,3 10,0 9,6 9 5 21 11 NW 1019,1 13 0 0,2
19.02.2018 19:00:00 9,8 9,3 9,5 10,1 9,6 7 4 15 8 WNW 1019,0 3,3 0 0,0
19.02.2018 18:00:00 10,0 9,2 9,7 10,0 9,6 8 4 11 6 NW 1018,8 18 0 0,0
19.02.2018 17:00:00 10,1 9,3 10,0 10,0 9,6 6 3 18 10 NNW 1018,7 20 0 0,0
19.02.2018 16:00:00 10,0 9,1 10,3 9,9 9,6 7 4 16 9 N 1019,0 11 0 0,0
19.02.2018 15:00:00 10,2 9,0 10,7 9,7 9,6 5 3 13 7 N 1019,1 15 0 0,0
19.02.2018 14:00:00 9,9 8,5 10,9 9,6 9,6 4 2 11 6 NW 1019,3 25 0 0,0
19.02.2018 13:00:00 9,5 8,6 9,9 9,4 9,6 0 0 11 6 N 1019,8 10 0 0,0
19.02.2018 12:00:00 8,9 8,4 9,2 9,2 9,6 0 0 6 3 N 1020,1 22 0 0,0
19.02.2018 11:00:00 8,0 8,0 8,3 9,1 9,6 2 1 9 5 ESE 1020,0 2,5 0 0,0
19.02.2018 10:00:00 7,7 7,7 7,7 9,1 9,6 8 4 12 6 E 1020,0 0,5 0 0,0
19.02.2018 09:00:00 7,6 7,6 7,6 9,1 9,6 6 3 9 5 E 1019,9 0,8 0 0,0
19.02.2018 08:00:00 7,5 7,5 7,5 9,1 9,6 8 4 10 5 E 1019,8 1,1 0 0,0
19.02.2018 07:00:00 7,7 7,7 7,7 9,1 9,6 6 3 11 6 E 1019,5 0,8 0 0,0
19.02.2018 06:00:00 7,8 7,8 7,8 9,2 9,6 6 3 10 5 NE 1019,3 0,4 0 0,0
19.02.2018 05:00:00 8,2 8,2 8,1 9,2 9,5 7 4 8 5 E 1019,4 1,7 0 0,0
19.02.2018 04:00:00 8,4 8,4 8,3 9,2 9,6 6 4 8 5 E 1019,4 1,4 0 0,0
19.02.2018 03:00:00 8,5 8,5 8,4 9,2 9,5 6 3 9 5 ESE 1019,8 1,3 0 0,0
19.02.2018 02:00:00 8,7 8,7 8,6 9,2 9,6 7 4 9 5 SE 1020,0 1,2 0 0,0
19.02.2018 01:00:00 8,8 8,7 8,6 9,2 9,5 5 3 6 3 ESE 1020,5 1,4 0 0,0
19.02.2018 00:00:00 8,7 8,6 8,6 9,3 9,6 4 2 8 4 E 1020,7 2,2 0 0,0
18.02.2018 23:00:00 8,9 8,8 8,8 9,3 9,6 6 3 9 5 E 1021,0 1,6 0 0,0
18.02.2018 22:00:00 9,1 9,0 8,9 9,3 9,6 7 4 14 8 ENE 1021,2 1,2 0 0,4
18.02.2018 21:00:00 9,7 9,6 9,5 9,3 9,6 9 5 12 7 NE 1021,4 1,5 0 0,0
18.02.2018 20:00:00 10,1 9,8 9,9 9,2 9,6 7 4 24 13 NE 1021,4 1,7 0 0,4
18.02.2018 19:00:00 10,7 10,5 10,4 9,2 9,6 14 8 22 12 NW 1021,2 1,4 0 0,2
18.02.2018 18:00:00 10,9 10,6 10,6 9,1 9,6 8 4 17 9 WNW 1021,0 2,1 0 0,4
18.02.2018 17:00:00 11,4 10,8 11,1 8,9 9,6 9 5 20 11 WNW 1021,2 3,1 0 0,0
18.02.2018 16:00:00 11,9 10,6 11,5 8,7 9,6 11 6 21 11 NW 1021,5 32 0 0,0
18.02.2018 15:00:00 11,3 10,7 11,2 8,4 9,6 12 6 18 10 WNW 1021,7 17 0 0,2
18.02.2018 14:00:00 10,0 9,8 9,3 8,2 9,6 11 6 20 11 SSW 1022,6 34 0 0,2
18.02.2018 13:00:00 8,9 8,6 8,5 8,1 9,6 15 8 29 16 SSW 1023,4 11 0 1,0
18.02.2018 12:00:00 8,1 8,0 7,3 7,9 9,6 16 8 26 14 S 1024,1 3,8 0 1,0
18.02.2018 11:00:00 7,2 6,6 6,6 7,8 9,6 14 7 21 11 S 1024,9 8 0 0,6
18.02.2018 10:00:00 6,4 5,8 5,9 7,8 9,6 13 7 21 11 S 1025,5 23 0 0,0
18.02.2018 09:00:00 5,6 5,5 4,8 7,8 9,6 12 7 18 10 S 1025,9 15 0 0,0
18.02.2018 08:00:00 4,8 4,8 3,7 7,8 9,6 11 6 16 9 S 1026,0 15 0 0,0
18.02.2018 07:00:00 3,9 3,9 2,8 7,9 9,6 9 5 16 8 S 1026,3 8 0 0,0
18.02.2018 06:00:00 2,9 2,9 -0,2 8,0 9,6 4 2 7 4 S 1026,9 9 0 0,0
18.02.2018 05:00:00 1,9 1,8 -0,7 8,2 9,6 2 1 5 3 SSW 1027,2 0,5 0 0,0
18.02.2018 04:00:00 1,7 1,4 -0,5 8,4 9,6 4 2 8 5 SSW 1027,4 5 0 0,0
18.02.2018 03:00:00 2,1 2,0 -0,6 8,6 9,5 7 4 8 5 SW 1028,1 2,9 0 0,0
18.02.2018 02:00:00 2,1 1,8 -0,7 8,8 9,5 4 2 6 3 SW 1028,3 0,8 0 0,0
18.02.2018 01:00:00 3,0 2,6 -0,1 9,1 9,5 5 3 8 5 SW 1028,4 9 0 0,0
18.02.2018 00:00:00 3,5 3,1 0,3 9,3 9,5 3 1 7 4 SW 1028,5 4,7 0 0,0
17.02.2018 23:00:00 4,6 4,0 1,3 9,6 9,5 6 4 9 5 WSW 1028,3 3,8 0 0,0
17.02.2018 22:00:00 4,9 3,9 2,2 9,8 9,5 9 5 11 6 W 1028,1 21 0 0,0
17.02.2018 21:00:00 5,8 4,4 3,9 10,1 9,5 5 3 16 8 WNW 1027,8 42 0 0,0
17.02.2018 20:00:00 6,8 4,6 5,3 10,3 9,5 11 6 16 9 WNW 1027,6 56 0 0,0
17.02.2018 19:00:00 8,1 3,7 6,5 10,5 9,5 8 5 18 10 W 1027,0 60 0 0,0
17.02.2018 18:00:00 10,0 3,7 9,2 10,6 9,4 16 8 25 13 NNW 1026,4 54 23 0,0
17.02.2018 17:00:00 9,9 4,5 10,0 10,6 9,4 16 9 31 17 NNW 1026,0 57 0 0,0
17.02.2018 16:00:00 10,7 4,2 11,4 10,5 9,4 24 13 38 21 NNW 1025,8 59 39 0,0
17.02.2018 15:00:00 10,9 5,0 11,0 10,4 9,4 26 14 37 20 NW 1025,6 31 11 0,0
17.02.2018 14:00:00 10,7 4,6 11,7 10,3 9,4 26 14 42 23 NW 1025,6 43 8 0,0
17.02.2018 13:00:00 11,1 5,4 11,3 10,0 9,4 26 14 46 25 WNW 1025,3 37 27 0,0
17.02.2018 12:00:00 11,7 6,4 11,1 9,9 9,3 29 16 52 28 WNW 1024,9 38 37 0,0
17.02.2018 11:00:00 11,0 6,9 10,9 9,8 9,3 30 16 56 30 WNW 1024,3 39 28 0,0
17.02.2018 10:00:00 10,9 8,3 9,2 9,8 9,3 19 10 30 16 W 1023,5 40 56 0,0
17.02.2018 09:00:00 9,1 7,7 8,2 9,9 9,3 17 9 25 13 W 1023,1 20 2 0,0
17.02.2018 08:00:00 8,8 8,0 7,7 10,0 9,2 16 8 23 13 WSW 1022,3 20 0 0,0
17.02.2018 07:00:00 8,5 7,6 7,8 10,2 9,3 11 6 25 13 W 1022,0 38 0 0,0
17.02.2018 06:00:00 8,7 7,5 8,0 10,3 9,2 18 10 46 25 WNW 1021,5 42 0 0,0
17.02.2018 05:00:00 9,3 8,1 8,6 10,3 9,2 31 17 62 34 WNW 1020,8 16 0 0,2
17.02.2018 04:00:00 11,3 10,8 10,9 10,4 9,2 19 10 31 17 W 1019,8 17 0 0,4
17.02.2018 03:00:00 11,6 11,4 11,3 10,3 9,1 18 10 29 16 W 1019,5 6 0 0,2
17.02.2018 02:00:00 11,7 11,7 11,5 10,4 9,1 15 8 22 12 WSW 1019,2 6 0 1,8
17.02.2018 01:00:00 11,7 11,7 11,5 10,4 9,1 8 4 11 6 WSW 1018,8 0,9 0 0,0
17.02.2018 00:00:00 11,8 11,8 11,6 10,4 9,1 6 3 8 5 W 1018,8 0,2 0 0,0
16.02.2018 23:00:00 12,1 11,9 11,8 10,4 9,1 4 2 16 9 WNW 1018,6 0,1 0 0,0
16.02.2018 22:00:00 12,2 12,0 11,8 10,4 9,1 4 2 13 7 NW 1018,7 0,1 0 0,0
16.02.2018 21:00:00 12,2 12,0 11,9 10,4 9,0 2 1 16 9 WSW 1019,1 0,3 0 0,0
16.02.2018 20:00:00 12,3 12,0 12,0 10,5 9,0 8 4 11 6 ESE 1019,6 3,3 0 0,0
16.02.2018 19:00:00 12,4 11,9 12,0 10,5 9,0 6 3 9 5 ESE 1019,9 7 0 0,0
16.02.2018 18:00:00 12,6 12,0 12,5 10,4 9,0 6 4 16 8 E 1020,1 10 0 0,0
16.02.2018 17:00:00 12,5 11,9 12,4 10,3 9,0 9 5 16 8 ENE 1020,3 7 0 0,0
16.02.2018 16:00:00 12,1 11,6 12,4 10,2 9,0 8 4 15 8 ENE 1021,1 7 0 0,0
16.02.2018 15:00:00 12,0 11,4 12,2 10,0 8,9 8 4 15 8 NNE 1021,8 8 0 0,0
16.02.2018 14:00:00 11,7 11,1 11,9 10,0 8,9 6 3 10 6 NNE 1022,7 7 0 0,0
16.02.2018 13:00:00 11,4 10,9 11,6 9,8 8,9 8 4 15 8 NNE 1023,1 6 0 0,0
16.02.2018 12:00:00 10,9 10,6 10,6 9,7 8,8 9 5 18 10 ENE 1023,8 8 0 0,0
16.02.2018 11:00:00 10,6 10,3 10,7 9,7 8,9 9 5 20 11 NNE 1024,3 8 0 0,0
16.02.2018 10:00:00 10,6 10,3 10,1 9,7 8,8 8 4 14 8 ENE 1023,8 13 0 0,2
16.02.2018 09:00:00 10,2 10,0 9,9 9,7 8,8 10 5 16 9 NNE 1023,9 10 0 0,0
16.02.2018 08:00:00 10,0 9,8 9,9 9,7 8,8 10 5 18 10 NNE 1023,8 9 0 0,0
16.02.2018 07:00:00 10,3 10,1 10,1 9,8 8,8 11 6 27 15 N 1023,5 9 0 0,2
16.02.2018 06:00:00 10,5 10,5 10,3 9,8 8,8 9 5 13 7 NE 1023,3 6 0 0,0
16.02.2018 05:00:00 10,6 10,6 10,4 9,8 8,7 8 5 16 8 NE 1023,3 9 0 0,2
16.02.2018 04:00:00 11,0 10,8 10,7 9,8 8,7 11 6 16 9 N 1023,4 4,5 0 0,8

tt = Température de l'air
td = dewpoint
tt 5cm = Température de l'air 5cm
tt -20cm = Température de l'air -20cm
tt -100cm = Température de l'air -100cm
ff = Vitesse du vent
fx = gusts
dd = Direction du vent
ppp = reduced air pressure
vv = visibility
sd = Ensoleillement
rr = Quantités de précipitations

stations d'obs. à proximité